Tracking 19634 objects as of 21-May-2019
HD Live streaming from Space Station
objects crossing your sky now

ESSA 6 (TOS-D)

Track ESSA 6 (TOS-D) now!
10-day predictions
ESSA 6 (TOS-D) is classified as:


NORAD ID: 3035
Int'l Code: 1967-114A
Perigee: 1,416.0 km
Apogee: 1,492.1 km
Inclination: 102.3 °
Period: 114.8 minutes
Semi major axis: 7825 km
RCS: 0.8501 m2 (medium)
Launch date: November 10, 1967
Source: United States (US)
Launch site: AIR FORCE WESTERN TEST RANGE (AFWTR)
aabbcc
Your satellite tracking list
Your tracking list is empty




NASA's NSSDC Master Catalog

Two Line Element Set (TLE):
1  3035U 67114A   19141.08845910 -.00000055  00000-0 -41445-4 0  9995
2  3035 102.2503 155.6851 0048635 355.7840  38.7932 12.54218524359075
Source of the keplerian elements: AFSPC